When you browse on this site, cookies collect data to enhance your experience and personalize the content and advertising you see.
Visit our Privacy Policy to learn more. By continuing to use the site, you agree to this use of cookies and data.

Hourly Weather As-Savira

Today, 4 July, Saturday

Time Temperature Precipitation Wind Pressure Humidity
00:00 +35°C° 0 mm 6 mps 735 mmHg 15%
01:00 +34°C° 0 mm 6 mps 735 mmHg 18%
02:00 +33°C° 0 mm 6 mps 734 mmHg 18%
03:00 +32°C° 0 mm 5 mps 734 mmHg 19%
04:00 +32°C° 0 mm 4 mps 734 mmHg 19%
05:00 +32°C° 0 mm 5 mps 734 mmHg 19%
06:00 +32°C° 0 mm 5 mps 735 mmHg 19%
07:00 +33°C° 0 mm 5 mps 735 mmHg 18%
08:00 +35°C° 0 mm 5 mps 736 mmHg 16%
09:00 +38°C° 0 mm 4 mps 736 mmHg 14%
10:00 +40°C° 0 mm 3 mps 736 mmHg 11%
11:00 +41°C° 0 mm 2 mps 736 mmHg 10%
12:00 +42°C° 0 mm 2 mps 736 mmHg 9%
13:00 +44°C° 0 mm 1 mps 736 mmHg 8%
14:00 +44°C° 0 mm 1 mps 735 mmHg 7%
15:00 +46°C° 0 mm 2 mps 735 mmHg 7%
16:00 +47°C° 0 mm 2 mps 734 mmHg 6%
17:00 +45°C° 0 mm 6 mps 734 mmHg 13%
18:00 +42°C° 0 mm 9 mps 734 mmHg 19%
19:00 +38°C° 0 mm 12 mps 734 mmHg 26%
20:00 +36°C° 0 mm 12 mps 734 mmHg 32%
21:00 +32°C° 0 mm 11 mps 735 mmHg 39%
22:00 +28°C° 0 mm 10 mps 735 mmHg 45%
23:00 +28°C° 0 mm 9 mps 736 mmHg 43%

Tomorrow, 5 July, Sunday

Time Temperature Precipitation Wind Pressure Humidity
00:00 +28°C° 0 mm 9 mps 736 mmHg 41%
01:00 +27°C° 0 mm 9 mps 736 mmHg 39%
02:00 +27°C° 0 mm 9 mps 736 mmHg 41%
03:00 +26°C° 0 mm 9 mps 736 mmHg 43%
04:00 +24°C° 0 mm 9 mps 736 mmHg 45%
05:00 +26°C° 0 mm 9 mps 736 mmHg 46%
06:00 +26°C° 0 mm 8 mps 736 mmHg 47%
07:00 +26°C° 0 mm 8 mps 736 mmHg 48%
08:00 +28°C° 0 mm 7 mps 736 mmHg 41%
09:00 +32°C° 0 mm 7 mps 737 mmHg 34%
10:00 +34°C° 0 mm 6 mps 737 mmHg 28%
11:00 +35°C° 0 mm 6 mps 736 mmHg 24%
12:00 +38°C° 0 mm 7 mps 736 mmHg 21%
13:00 +39°C° 0 mm 7 mps 736 mmHg 18%
14:00 +40°C° 0 mm 7 mps 736 mmHg 17%
15:00 +40°C° 0 mm 7 mps 735 mmHg 16%
16:00 +40°C° 0 mm 7 mps 735 mmHg 16%
17:00 +39°C° 0 mm 7 mps 735 mmHg 17%
18:00 +36°C° 0 mm 7 mps 735 mmHg 18%
19:00 +35°C° 0 mm 7 mps 735 mmHg 19%
20:00 +33°C° 0 mm 7 mps 735 mmHg 26%
21:00 +30°C° 0 mm 7 mps 735 mmHg 33%
22:00 +28°C° 0 mm 6 mps 736 mmHg 39%
23:00 +27°C° 0 mm 5 mps 735 mmHg 42%

Day after tomorrow, 6 July, Monday

Time Temperature Precipitation Wind Pressure Humidity
00:00 +26°C° 0 mm 4 mps 735 mmHg 44%
01:00 +25°C° 0 mm 3 mps 735 mmHg 46%
02:00 +25°C° 0 mm 3 mps 735 mmHg 49%
03:00 +24°C° 0 mm 3 mps 734 mmHg 51%
04:00 +24°C° 0 mm 3 mps 734 mmHg 53%
05:00 +24°C° 0 mm 3 mps 734 mmHg 52%
06:00 +25°C° 0 mm 3 mps 734 mmHg 51%
07:00 +25°C° 0 mm 3 mps 735 mmHg 49%
08:00 +27°C° 0 mm 3 mps 735 mmHg 44%
09:00 +29°C° 0 mm 3 mps 735 mmHg 38%
10:00 +31°C° 0 mm 2 mps 735 mmHg 33%
11:00 +34°C° 0 mm 3 mps 735 mmHg 29%
12:00 +35°C° 0 mm 3 mps 734 mmHg 25%
13:00 +37°C° 0 mm 4 mps 734 mmHg 21%
14:00 +37°C° 0 mm 4 mps 733 mmHg 20%
15:00 +39°C° 0 mm 5 mps 733 mmHg 19%
16:00 +39°C° 0 mm 6 mps 732 mmHg 18%
17:00 +37°C° 0 mm 5 mps 732 mmHg 18%
18:00 +36°C° 0 mm 4 mps 732 mmHg 19%
19:00 +36°C° 0 mm 3 mps 732 mmHg 20%
20:00 +34°C° 0 mm 4 mps 732 mmHg 22%
21:00 +33°C° 0 mm 4 mps 733 mmHg 24%
22:00 +30°C° 0 mm 5 mps 733 mmHg 26%
23:00 +29°C° 0 mm 5 mps 733 mmHg 30%

7 July, Tuesday

Time Temperature Precipitation Wind Pressure Humidity
00:00 +28°C° 0 mm 4 mps 733 mmHg 35%
01:00 +27°C° 0 mm 4 mps 733 mmHg 40%
02:00 +26°C° 0 mm 4 mps 732 mmHg 40%
03:00 +26°C° 0 mm 4 mps 732 mmHg 41%
04:00 +26°C° 0 mm 4 mps 732 mmHg 42%
05:00 +26°C° 0 mm 4 mps 733 mmHg 40%
06:00 +27°C° 0 mm 4 mps 733 mmHg 39%
07:00 +27°C° 0 mm 4 mps 734 mmHg 38%
08:00 +29°C° 0 mm 4 mps 734 mmHg 34%
09:00 +32°C° 0 mm 4 mps 734 mmHg 31%
10:00 +34°C° 0 mm 3 mps 734 mmHg 27%
11:00 +35°C° 0 mm 3 mps 734 mmHg 25%
12:00 +36°C° 0 mm 3 mps 734 mmHg 23%
13:00 +37°C° 0 mm 3 mps 734 mmHg 20%
14:00 +38°C° 0 mm 3 mps 733 mmHg 19%
15:00 +40°C° 0 mm 4 mps 733 mmHg 18%
16:00 +40°C° 0 mm 5 mps 733 mmHg 16%
17:00 +39°C° 0 mm 5 mps 733 mmHg 17%
18:00 +38°C° 0 mm 6 mps 733 mmHg 17%
19:00 +36°C° 0 mm 6 mps 733 mmHg 17%
20:00 +34°C° 0 mm 6 mps 734 mmHg 23%
21:00 +33°C° 0 mm 6 mps 734 mmHg 29%
22:00 +30°C° 0 mm 6 mps 735 mmHg 35%
23:00 +29°C° 0 mm 6 mps 735 mmHg 36%

8 July, Wednesday

Time Temperature Precipitation Wind Pressure Humidity
00:00 +28°C° 0 mm 6 mps 735 mmHg 37%
01:00 +28°C° 0 mm 6 mps 735 mmHg 38%
02:00 +27°C° 0 mm 6 mps 734 mmHg 37%
03:00 +27°C° 0 mm 6 mps 734 mmHg 36%
04:00 +26°C° 0 mm 5 mps 734 mmHg 34%
05:00 +26°C° 0 mm 6 mps 734 mmHg 35%
06:00 +27°C° 0 mm 6 mps 735 mmHg 36%
07:00 +27°C° 0 mm 6 mps 735 mmHg 37%
08:00 +29°C° 0 mm 5 mps 735 mmHg 33%
09:00 +32°C° 0 mm 5 mps 736 mmHg 29%
10:00 +34°C° 0 mm 5 mps 736 mmHg 25%
11:00 +36°C° 0 mm 5 mps 736 mmHg 23%
12:00 +37°C° 0 mm 4 mps 736 mmHg 22%
13:00 +38°C° 0 mm 4 mps 735 mmHg 20%
14:00 +40°C° 0 mm 4 mps 735 mmHg 19%
15:00 +40°C° 0 mm 5 mps 734 mmHg 18%
16:00 +41°C° 0 mm 5 mps 734 mmHg 17%
17:00 +40°C° 0 mm 5 mps 734 mmHg 18%
18:00 +39°C° 0 mm 5 mps 734 mmHg 19%
19:00 +37°C° 0 mm 5 mps 734 mmHg 20%
20:00 +35°C° 0 mm 6 mps 734 mmHg 25%
21:00 +34°C° 0 mm 6 mps 735 mmHg 30%
22:00 +32°C° 0 mm 7 mps 735 mmHg 34%
23:00 +30°C° 0 mm 6 mps 735 mmHg 35%

9 July, Thursday

Time Temperature Precipitation Wind Pressure Humidity
00:00 +30°C° 0 mm 6 mps 735 mmHg 36%
01:00 +29°C° 0 mm 5 mps 735 mmHg 37%
02:00 +28°C° 0 mm 5 mps 734 mmHg 39%
03:00 +28°C° 0 mm 6 mps 734 mmHg 41%
04:00 +27°C° 0 mm 6 mps 734 mmHg 43%
05:00 +28°C° 0 mm 6 mps 735 mmHg 41%
06:00 +28°C° 0 mm 6 mps 735 mmHg 39%
07:00 +28°C° 0 mm 6 mps 735 mmHg 38%
08:00 +32°C° 0 mm 5 mps 735 mmHg 33%
09:00 +34°C° 0 mm 5 mps 736 mmHg 28%
10:00 +37°C° 0 mm 4 mps 736 mmHg 23%
11:00 +38°C° 0 mm 3 mps 735 mmHg 20%
12:00 +39°C° 0 mm 2 mps 735 mmHg 18%
13:00 +40°C° 0 mm 1 mps 735 mmHg 15%
14:00 +40°C° 0 mm 1 mps 734 mmHg 14%
15:00 +41°C° 0 mm 1 mps 734 mmHg 13%
16:00 +41°C° 0 mm 1 mps 733 mmHg 12%
17:00 +40°C° 0 mm 2 mps 733 mmHg 13%
18:00 +39°C° 0 mm 2 mps 733 mmHg 14%
19:00 +38°C° 0 mm 2 mps 733 mmHg 14%
20:00 +37°C° 0 mm 3 mps 734 mmHg 16%
21:00 +35°C° 0 mm 5 mps 734 mmHg 19%
22:00 +34°C° 0 mm 6 mps 734 mmHg 21%
23:00 +33°C° 0 mm 6 mps 734 mmHg 22%
Show more